owner,sensor,date,latitude,longitude,vertical_datum,wind_speed,wind_to_direction,wind_speed_of_gust,qcFlag 
ADCP,ioos:station:wmo:42390:1,2012-10-01T00:30:00Z,26.1290,-94.8980,1.0,11.8,316.0,99.0,'11111222,11111222,11144222' 
ADCP,ioos:station:wmo:42390:1,2012-10-01T01:30:00Z,26.1290,-94.8980,1.0,12.3,320.0,99.0,'11111222,11111222,11144222' 
ADCP,ioos:station:wmo:42390:1,2012-10-01T02:30:00Z,26.1290,-94.8980,1.0,11.7,323.0,99.0,'11111222,11111222,11144222' 
ADCP,ioos:station:wmo:42390:1,2012-10-01T03:30:00Z,26.1290,-94.8980,1.0,11.4,322.0,99.0,'11111222,11111222,11144222' 
ADCP,ioos:station:wmo:42390:1,2012-10-01T04:30:00Z,26.1290,-94.8980,1.0,11.1,320.0,99.0,'11111222,11111222,11144222' 
ADCP,ioos:station:wmo:42390:1,2012-10-01T05:30:00Z,26.1290,-94.8980,1.0,11.8,327.0,99.0,'11111222,11111222,11144222' 
ADCP,ioos:station:wmo:42390:1,2012-10-01T06:30:00Z,26.1290,-94.8980,1.0,10.8,326.0,99.0,'11111222,11111222,11144222' 
ADCP,ioos:station:wmo:42390:1,2012-10-01T07:30:00Z,26.1290,-94.8980,1.0,10.2,327.0,99.0,'11111222,11111222,11144222' 
ADCP,ioos:station:wmo:42390:1,2012-10-01T08:30:00Z,26.1290,-94.8980,1.0,10.2,328.0,99.0,'11111222,11111222,11144222' 
ADCP,ioos:station:wmo:42390:1,2012-10-01T09:30:00Z,26.1290,-94.8980,1.0,10.6,325.0,99.0,'11111222,11111222,11144222' 
ADCP,ioos:station:wmo:42390:1,2012-10-01T10:30:00Z,26.1290,-94.8980,1.0,10.7,321.0,99.0,'11111222,11111222,11144222' 
ADCP,ioos:station:wmo:42390:1,2012-10-01T11:30:00Z,26.1290,-94.8980,1.0,10.0,321.0,99.0,'11111222,11111222,11144222' 
ADCP,ioos:station:wmo:42390:1,2012-10-01T12:30:00Z,26.1290,-94.8980,1.0,10.1,327.0,99.0,'11111222,11111222,11144222' 
ADCP,ioos:station:wmo:42390:1,2012-10-01T13:30:00Z,26.1290,-94.8980,1.0,10.4,332.0,99.0,'11111222,11111222,11144222' 
ADCP,ioos:station:wmo:42390:1,2012-10-01T14:30:00Z,26.1290,-94.8980,1.0,10.9,332.0,99.0,'11111222,11111222,11144222' 
ADCP,ioos:station:wmo:42390:1,2012-10-01T15:30:00Z,26.1290,-94.8980,1.0,10.6,335.0,99.0,'11111222,11111222,11144222' 
ADCP,ioos:station:wmo:42390:1,2012-10-01T16:30:00Z,26.1290,-94.8980,1.0,10.1,336.0,99.0,'11111222,11111222,11144222' 
ADCP,ioos:station:wmo:42390:1,2012-10-01T17:30:00Z,26.1290,-94.8980,1.0,9.6,344.0,99.0,'11111222,11111222,11144222' 
ADCP,ioos:station:wmo:42390:1,2012-10-01T18:30:00Z,26.1290,-94.8980,1.0,12.3,46.0,99.0,'11111222,11111222,11144222' 
ADCP,ioos:station:wmo:42390:1,2012-10-01T19:30:00Z,26.1290,-94.8980,1.0,13.5,80.0,99.0,'11111222,11111222,11144222' 
ADCP,ioos:station:wmo:42390:1,2012-10-01T20:30:00Z,26.1290,-94.8980,1.0,22.7,186.0,99.0,'11111222,11111222,11144222' 
ADCP,ioos:station:wmo:42390:1,2012-10-01T21:30:00Z,26.1290,-94.8980,1.0,4.8,344.0,99.0,'11111222,11111222,11144222' 
ADCP,ioos:station:wmo:42390:1,2012-10-01T22:30:00Z,26.1290,-94.8980,1.0,8.7,44.0,99.0,'11111222,11111222,11144222' 
ADCP,ioos:station:wmo:42390:1,2012-10-01T23:30:00Z,26.1290,-94.8980,1.0,5.6,328.0,99.0,'11111222,11111222,11144222' 
ADCP,ioos:station:wmo:42390:1,2012-10-02T00:30:00Z,26.1290,-94.8980,1.0,5.6,319.0,99.0,'11111222,11111222,11144222' 
ADCP,ioos:station:wmo:42390:1,2012-10-02T01:30:00Z,26.1290,-94.8980,1.0,6.1,316.0,99.0,'11111222,11111222,11144222' 
ADCP,ioos:station:wmo:42390:1,2012-10-02T02:30:00Z,26.1290,-94.8980,1.0,5.8,321.0,99.0,'11111222,11111222,11144222' 
ADCP,ioos:station:wmo:42390:1,2012-10-02T03:30:00Z,26.1290,-94.8980,1.0,5.7,321.0,99.0,'11111222,11111222,11144222' 
ADCP,ioos:station:wmo:42390:1,2012-10-02T04:30:00Z,26.1290,-94.8980,1.0,3.9,313.0,99.0,'11111222,11111222,11144222' 
ADCP,ioos:station:wmo:42390:1,2012-10-02T05:30:00Z,26.1290,-94.8980,1.0,2.5,313.0,99.0,'11111222,11111222,11144222' 
ADCP,ioos:station:wmo:42390:1,2012-10-02T06:30:00Z,26.1290,-94.8980,1.0,2.4,306.0,99.0,'11111222,11111222,11144222' 
ADCP,ioos:station:wmo:42390:1,2012-10-02T07:30:00Z,26.1290,-94.8980,1.0,3.0,293.0,99.0,'11111222,11111222,11144222' 
ADCP,ioos:station:wmo:42390:1,2012-10-02T08:30:00Z,26.1290,-94.8980,1.0,2.6,270.0,99.0,'11111222,11111222,11144222' 
ADCP,ioos:station:wmo:42390:1,2012-10-02T09:30:00Z,26.1290,-94.8980,1.0,5.2,266.0,99.0,'11111222,11111222,11144222' 
ADCP,ioos:station:wmo:42390:1,2012-10-02T10:30:00Z,26.1290,-94.8980,1.0,6.0,262.0,99.0,'11111222,11111222,11144222' 
ADCP,ioos:station:wmo:42390:1,2012-10-02T11:30:00Z,26.1290,-94.8980,1.0,4.3,241.0,99.0,'11111222,11111222,11144222' 
ADCP,ioos:station:wmo:42390:1,2012-10-02T12:30:00Z,26.1290,-94.8980,1.0,3.8,254.0,99.0,'11111222,11111222,11144222' 
ADCP,ioos:station:wmo:42390:1,2012-10-02T13:30:00Z,26.1290,-94.8980,1.0,4.9,263.0,99.0,'11111222,11111222,11144222' 
ADCP,ioos:station:wmo:42390:1,2012-10-02T14:30:00Z,26.1290,-94.8980,1.0,2.8,261.0,99.0,'11111222,11111222,11144222' 
ADCP,ioos:station:wmo:42390:1,2012-10-02T15:30:00Z,26.1290,-94.8980,1.0,3.0,266.0,99.0,'11111222,11111222,11144222' 
ADCP,ioos:station:wmo:42390:1,2012-10-02T16:30:00Z,26.1290,-94.8980,1.0,3.6,257.0,99.0,'11111222,11111222,11144222' 
ADCP,ioos:station:wmo:42390:1,2012-10-02T17:30:00Z,26.1290,-94.8980,1.0,3.1,250.0,99.0,'11111222,11111222,11144222' 
ADCP,ioos:station:wmo:42390:1,2012-10-02T18:30:00Z,26.1290,-94.8980,1.0,3.5,273.0,99.0,'11111222,11111222,11144222' 
ADCP,ioos:station:wmo:42390:1,2012-10-02T19:30:00Z,26.1290,-94.8980,1.0,4.8,294.0,99.0,'11111222,11111222,11144222' 
ADCP,ioos:station:wmo:42390:1,2012-10-02T20:30:00Z,26.1290,-94.8980,1.0,4.8,300.0,99.0,'11111222,11111222,11144222' 
ADCP,ioos:station:wmo:42390:1,2012-10-02T21:30:00Z,26.1290,-94.8980,1.0,4.7,301.0,99.0,'11111222,11111222,11144222' 
ADCP,ioos:station:wmo:42390:1,2012-10-02T22:30:00Z,26.1290,-94.8980,1.0,5.2,311.0,99.0,'11111222,11111222,11144222' 
ADCP,ioos:station:wmo:42390:1,2012-10-02T23:30:00Z,26.1290,-94.8980,1.0,4.8,308.0,99.0,'11111222,11111222,11144222' 
ADCP,ioos:station:wmo:42390:1,2012-10-03T00:30:00Z,26.1290,-94.8980,1.0,3.7,325.0,99.0,'11111222,11111222,11144222' 
ADCP,ioos:station:wmo:42390:1,2012-10-03T01:30:00Z,26.1290,-94.8980,1.0,3.1,335.0,99.0,'11111222,11111222,11144222' 
ADCP,ioos:station:wmo:42390:1,2012-10-03T02:30:00Z,26.1290,-94.8980,1.0,2.6,320.0,99.0,'11111222,11111222,11144222' 
ADCP,ioos:station:wmo:42390:1,2012-10-03T03:30:00Z,26.1290,-94.8980,1.0,2.8,308.0,99.0,'11111222,11111222,11144222' 
ADCP,ioos:station:wmo:42390:1,2012-10-03T04:30:00Z,26.1290,-94.8980,1.0,2.3,294.0,99.0,'11111222,11111222,11144222' 
ADCP,ioos:station:wmo:42390:1,2012-10-03T05:30:00Z,26.1290,-94.8980,1.0,1.7,269.0,99.0,'11111222,11111222,11144222' 
ADCP,ioos:station:wmo:42390:1,2012-10-03T06:30:00Z,26.1290,-94.8980,1.0,2.0,242.0,99.0,'11111222,11111222,11144222' 
ADCP,ioos:station:wmo:42390:1,2012-10-03T07:30:00Z,26.1290,-94.8980,1.0,2.6,228.0,99.0,'11111222,11111222,11144222' 
ADCP,ioos:station:wmo:42390:1,2012-10-03T08:30:00Z,26.1290,-94.8980,1.0,2.7,224.0,99.0,'11111222,11111222,11144222' 
ADCP,ioos:station:wmo:42390:1,2012-10-03T09:30:00Z,26.1290,-94.8980,1.0,3.0,232.0,99.0,'11111222,11111222,11144222' 
ADCP,ioos:station:wmo:42390:1,2012-10-03T10:30:00Z,26.1290,-94.8980,1.0,3.0,247.0,99.0,'11111222,11111222,11144222' 
ADCP,ioos:station:wmo:42390:1,2012-10-03T11:30:00Z,26.1290,-94.8980,1.0,2.8,259.0,99.0,'11111222,11111222,11144222' 
ADCP,ioos:station:wmo:42390:1,2012-10-03T12:30:00Z,26.1290,-94.8980,1.0,5.4,273.0,99.0,'11111222,11111222,11144222' 
ADCP,ioos:station:wmo:42390:1,2012-10-03T13:30:00Z,26.1290,-94.8980,1.0,3.4,239.0,99.0,'11111222,11111222,11144222' 
ADCP,ioos:station:wmo:42390:1,2012-10-03T14:30:00Z,26.1290,-94.8980,1.0,3.1,236.0,99.0,'11111222,11111222,11144222' 
ADCP,ioos:station:wmo:42390:1,2012-10-03T15:30:00Z,26.1290,-94.8980,1.0,99.0,-9999.0,99.0,'11144222,99999999,11144222' 
ADCP,ioos:station:wmo:42390:1,2012-10-03T16:30:00Z,26.1290,-94.8980,1.0,99.0,-9999.0,99.0,'11144222,99999999,11144222' 
ADCP,ioos:station:wmo:42390:1,2012-10-03T17:30:00Z,26.1290,-94.8980,1.0,99.0,-9999.0,99.0,'11144222,99999999,11144222' 
ADCP,ioos:station:wmo:42390:1,2012-10-03T18:30:00Z,26.1290,-94.8980,1.0,6.3,239.0,99.0,'11111222,11111222,11144222' 
ADCP,ioos:station:wmo:42390:1,2012-10-03T19:30:00Z,26.1290,-94.8980,1.0,3.9,203.0,99.0,'11111222,11111222,11144222' 
ADCP,ioos:station:wmo:42390:1,2012-10-03T20:30:00Z,26.1290,-94.8980,1.0,3.7,208.0,99.0,'11111222,11111222,11144222' 
ADCP,ioos:station:wmo:42390:1,2012-10-03T21:30:00Z,26.1290,-94.8980,1.0,2.7,211.0,99.0,'11111222,11111222,11144222' 
ADCP,ioos:station:wmo:42390:1,2012-10-03T22:30:00Z,26.1290,-94.8980,1.0,2.0,185.0,99.0,'11111222,11111222,11144222' 
ADCP,ioos:station:wmo:42390:1,2012-10-03T23:30:00Z,26.1290,-94.8980,1.0,2.5,166.0,99.0,'11111222,11111222,11144222' 
ADCP,ioos:station:wmo:42390:1,2012-10-04T00:30:00Z,26.1290,-94.8980,1.0,2.8,148.0,99.0,'11111222,11111222,11144222' 
ADCP,ioos:station:wmo:42390:1,2012-10-04T01:30:00Z,26.1290,-94.8980,1.0,3.2,138.0,99.0,'11111222,11111222,11144222' 
ADCP,ioos:station:wmo:42390:1,2012-10-04T02:30:00Z,26.1290,-94.8980,1.0,3.6,133.0,99.0,'11111222,11111222,11144222' 
ADCP,ioos:station:wmo:42390:1,2012-10-04T03:30:00Z,26.1290,-94.8980,1.0,4.4,129.0,99.0,'11111222,11111222,11144222' 
ADCP,ioos:station:wmo:42390:1,2012-10-04T04:30:00Z,26.1290,-94.8980,1.0,4.7,134.0,99.0,'11111222,11111222,11144222' 
ADCP,ioos:station:wmo:42390:1,2012-10-04T05:30:00Z,26.1290,-94.8980,1.0,5.4,140.0,99.0,'11111222,11111222,11144222' 
ADCP,ioos:station:wmo:42390:1,2012-10-04T06:30:00Z,26.1290,-94.8980,1.0,6.1,144.0,99.0,'11111222,11111222,11144222' 
ADCP,ioos:station:wmo:42390:1,2012-10-04T07:30:00Z,26.1290,-94.8980,1.0,6.7,145.0,99.0,'11111222,11111222,11144222' 
ADCP,ioos:station:wmo:42390:1,2012-10-04T08:30:00Z,26.1290,-94.8980,1.0,6.4,145.0,99.0,'11111222,11111222,11144222' 
ADCP,ioos:station:wmo:42390:1,2012-10-04T09:30:00Z,26.1290,-94.8980,1.0,6.3,149.0,99.0,'11111222,11111222,11144222' 
ADCP,ioos:station:wmo:42390:1,2012-10-04T10:30:00Z,26.1290,-94.8980,1.0,5.7,149.0,99.0,'11111222,11111222,11144222' 
ADCP,ioos:station:wmo:42390:1,2012-10-04T11:30:00Z,26.1290,-94.8980,1.0,5.5,150.0,99.0,'11111222,11111222,11144222' 
ADCP,ioos:station:wmo:42390:1,2012-10-04T12:30:00Z,26.1290,-94.8980,1.0,5.2,161.0,99.0,'11111222,11111222,11144222' 
ADCP,ioos:station:wmo:42390:1,2012-10-04T13:30:00Z,26.1290,-94.8980,1.0,4.7,157.0,99.0,'11111222,11111222,11144222' 
ADCP,ioos:station:wmo:42390:1,2012-10-04T14:30:00Z,26.1290,-94.8980,1.0,4.5,145.0,99.0,'11111222,11111222,11144222' 
ADCP,ioos:station:wmo:42390:1,2012-10-04T15:30:00Z,26.1290,-94.8980,1.0,5.4,128.0,99.0,'11111222,11111222,11144222' 
ADCP,ioos:station:wmo:42390:1,2012-10-04T16:30:00Z,26.1290,-94.8980,1.0,6.0,128.0,99.0,'11111222,11111222,11144222' 
ADCP,ioos:station:wmo:42390:1,2012-10-04T17:30:00Z,26.1290,-94.8980,1.0,6.2,123.0,99.0,'11111222,11111222,11144222' 
ADCP,ioos:station:wmo:42390:1,2012-10-04T18:30:00Z,26.1290,-94.8980,1.0,6.1,122.0,99.0,'11111222,11111222,11144222' 
ADCP,ioos:station:wmo:42390:1,2012-10-04T19:30:00Z,26.1290,-94.8980,1.0,6.5,120.0,99.0,'11111222,11111222,11144222' 
ADCP,ioos:station:wmo:42390:1,2012-10-04T20:30:00Z,26.1290,-94.8980,1.0,6.6,120.0,99.0,'11111222,11111222,11144222' 
ADCP,ioos:station:wmo:42390:1,2012-10-04T21:30:00Z,26.1290,-94.8980,1.0,5.6,116.0,99.0,'11111222,11111222,11144222' 
ADCP,ioos:station:wmo:42390:1,2012-10-04T22:30:00Z,26.1290,-94.8980,1.0,4.6,114.0,99.0,'11111222,11111222,11144222' 
ADCP,ioos:station:wmo:42390:1,2012-10-04T23:30:00Z,26.1290,-94.8980,1.0,4.0,110.0,99.0,'11111222,11111222,11144222' 
ADCP,ioos:station:wmo:42390:1,2012-10-05T00:30:00Z,26.1290,-94.8980,1.0,3.8,99.0,99.0,'11111222,11111222,11144222' 
ADCP,ioos:station:wmo:42390:1,2012-10-05T01:30:00Z,26.1290,-94.8980,1.0,3.6,92.0,99.0,'11111222,11111222,11144222' 
ADCP,ioos:station:wmo:42390:1,2012-10-05T02:30:00Z,26.1290,-94.8980,1.0,3.6,80.0,99.0,'11111222,11111222,11144222' 
ADCP,ioos:station:wmo:42390:1,2012-10-05T03:30:00Z,26.1290,-94.8980,1.0,4.9,81.0,99.0,'11111222,11111222,11144222' 
ADCP,ioos:station:wmo:42390:1,2012-10-05T04:30:00Z,26.1290,-94.8980,1.0,5.8,82.0,99.0,'11111222,11111222,11144222' 
ADCP,ioos:station:wmo:42390:1,2012-10-05T05:30:00Z,26.1290,-94.8980,1.0,6.9,91.0,99.0,'11111222,11111222,11144222' 
ADCP,ioos:station:wmo:42390:1,2012-10-05T06:30:00Z,26.1290,-94.8980,1.0,6.0,87.0,99.0,'11111222,11111222,11144222' 
ADCP,ioos:station:wmo:42390:1,2012-10-05T07:30:00Z,26.1290,-94.8980,1.0,5.0,93.0,99.0,'11111222,11111222,11144222' 
ADCP,ioos:station:wmo:42390:1,2012-10-05T08:30:00Z,26.1290,-94.8980,1.0,5.2,101.0,99.0,'11111222,11111222,11144222' 
ADCP,ioos:station:wmo:42390:1,2012-10-05T09:30:00Z,26.1290,-94.8980,1.0,5.6,109.0,99.0,'11111222,11111222,11144222' 
ADCP,ioos:station:wmo:42390:1,2012-10-05T10:30:00Z,26.1290,-94.8980,1.0,5.6,111.0,99.0,'11111222,11111222,11144222' 
ADCP,ioos:station:wmo:42390:1,2012-10-05T11:30:00Z,26.1290,-94.8980,1.0,5.2,107.0,99.0,'11111222,11111222,11144222' 
ADCP,ioos:station:wmo:42390:1,2012-10-05T12:30:00Z,26.1290,-94.8980,1.0,4.3,112.0,99.0,'11111222,11111222,11144222' 
ADCP,ioos:station:wmo:42390:1,2012-10-05T13:30:00Z,26.1290,-94.8980,1.0,3.2,119.0,99.0,'11111222,11111222,11144222' 
ADCP,ioos:station:wmo:42390:1,2012-10-05T14:30:00Z,26.1290,-94.8980,1.0,2.6,105.0,99.0,'11111222,11111222,11144222' 
ADCP,ioos:station:wmo:42390:1,2012-10-05T15:30:00Z,26.1290,-94.8980,1.0,2.6,82.0,99.0,'11111222,11111222,11144222' 
ADCP,ioos:station:wmo:42390:1,2012-10-05T16:30:00Z,26.1290,-94.8980,1.0,2.1,88.0,99.0,'11111222,11111222,11144222' 
ADCP,ioos:station:wmo:42390:1,2012-10-05T17:30:00Z,26.1290,-94.8980,1.0,1.4,59.0,99.0,'11111222,11111222,11144222' 
ADCP,ioos:station:wmo:42390:1,2012-10-05T18:30:00Z,26.1290,-94.8980,1.0,2.2,38.0,99.0,'11111222,11111222,11144222' 
ADCP,ioos:station:wmo:42390:1,2012-10-05T19:30:00Z,26.1290,-94.8980,1.0,1.4,27.0,99.0,'11111222,11111222,11144222' 
ADCP,ioos:station:wmo:42390:1,2012-10-05T20:30:00Z,26.1290,-94.8980,1.0,1.8,52.0,99.0,'11111222,11111222,11144222' 
ADCP,ioos:station:wmo:42390:1,2012-10-05T21:30:00Z,26.1290,-94.8980,1.0,1.6,46.0,99.0,'11111222,11111222,11144222' 
ADCP,ioos:station:wmo:42390:1,2012-10-05T22:30:00Z,26.1290,-94.8980,1.0,2.6,59.0,99.0,'11111222,11111222,11144222' 
ADCP,ioos:station:wmo:42390:1,2012-10-05T23:30:00Z,26.1290,-94.8980,1.0,3.9,67.0,99.0,'11111222,11111222,11144222' 
ADCP,ioos:station:wmo:42390:1,2012-10-06T00:30:00Z,26.1290,-94.8980,1.0,4.1,76.0,99.0,'11111222,11111222,11144222' 
ADCP,ioos:station:wmo:42390:1,2012-10-06T01:30:00Z,26.1290,-94.8980,1.0,4.0,87.0,99.0,'11111222,11111222,11144222' 
ADCP,ioos:station:wmo:42390:1,2012-10-06T02:30:00Z,26.1290,-94.8980,1.0,4.3,110.0,99.0,'11111222,11111222,11144222' 
ADCP,ioos:station:wmo:42390:1,2012-10-06T03:30:00Z,26.1290,-94.8980,1.0,2.8,111.0,99.0,'11111222,11111222,11144222' 
ADCP,ioos:station:wmo:42390:1,2012-10-06T04:30:00Z,26.1290,-94.8980,1.0,2.6,113.0,99.0,'11111222,11111222,11144222' 
ADCP,ioos:station:wmo:42390:1,2012-10-06T05:30:00Z,26.1290,-94.8980,1.0,3.4,132.0,99.0,'11111222,11111222,11144222' 
ADCP,ioos:station:wmo:42390:1,2012-10-06T06:30:00Z,26.1290,-94.8980,1.0,4.1,122.0,99.0,'11111222,11111222,11144222' 
ADCP,ioos:station:wmo:42390:1,2012-10-06T07:30:00Z,26.1290,-94.8980,1.0,4.7,132.0,99.0,'11111222,11111222,11144222' 
ADCP,ioos:station:wmo:42390:1,2012-10-06T08:30:00Z,26.1290,-94.8980,1.0,4.7,146.0,99.0,'11111222,11111222,11144222' 
ADCP,ioos:station:wmo:42390:1,2012-10-06T09:30:00Z,26.1290,-94.8980,1.0,4.0,147.0,99.0,'11111222,11111222,11144222' 
ADCP,ioos:station:wmo:42390:1,2012-10-06T10:30:00Z,26.1290,-94.8980,1.0,3.7,141.0,99.0,'11111222,11111222,11144222' 
ADCP,ioos:station:wmo:42390:1,2012-10-06T11:30:00Z,26.1290,-94.8980,1.0,1.6,95.0,99.0,'11111222,11111222,11144222' 
ADCP,ioos:station:wmo:42390:1,2012-10-06T12:30:00Z,26.1290,-94.8980,1.0,0.4,22.0,99.0,'11111222,11111222,11144222' 
ADCP,ioos:station:wmo:42390:1,2012-10-06T13:30:00Z,26.1290,-94.8980,1.0,0.2,10.0,99.0,'11111222,11111222,11144222' 
ADCP,ioos:station:wmo:42390:1,2012-10-06T14:30:00Z,26.1290,-94.8980,1.0,0.7,9.0,99.0,'11111222,11111222,11144222' 
ADCP,ioos:station:wmo:42390:1,2012-10-06T15:30:00Z,26.1290,-94.8980,1.0,2.1,19.0,99.0,'11111222,11111222,11144222' 
ADCP,ioos:station:wmo:42390:1,2012-10-06T16:30:00Z,26.1290,-94.8980,1.0,3.7,60.0,99.0,'11111222,11111222,11144222' 
ADCP,ioos:station:wmo:42390:1,2012-10-06T17:30:00Z,26.1290,-94.8980,1.0,3.6,60.0,99.0,'11111222,11111222,11144222' 
ADCP,ioos:station:wmo:42390:1,2012-10-06T18:30:00Z,26.1290,-94.8980,1.0,5.0,66.0,99.0,'11111222,11111222,11144222' 
ADCP,ioos:station:wmo:42390:1,2012-10-06T19:30:00Z,26.1290,-94.8980,1.0,4.5,63.0,99.0,'11111222,11111222,11144222' 
ADCP,ioos:station:wmo:42390:1,2012-10-06T20:30:00Z,26.1290,-94.8980,1.0,5.7,68.0,99.0,'11111222,11111222,11144222' 
ADCP,ioos:station:wmo:42390:1,2012-10-06T21:30:00Z,26.1290,-94.8980,1.0,6.0,67.0,99.0,'11111222,11111222,11144222' 
ADCP,ioos:station:wmo:42390:1,2012-10-06T22:30:00Z,26.1290,-94.8980,1.0,5.0,63.0,99.0,'11111222,11111222,11144222' 
ADCP,ioos:station:wmo:42390:1,2012-10-06T23:30:00Z,26.1290,-94.8980,1.0,6.0,69.0,99.0,'11111222,11111222,11144222' 
ADCP,ioos:station:wmo:42390:1,2012-10-07T00:30:00Z,26.1290,-94.8980,1.0,7.0,70.0,99.0,'11111222,11111222,11144222' 
ADCP,ioos:station:wmo:42390:1,2012-10-07T01:30:00Z,26.1290,-94.8980,1.0,5.7,63.0,99.0,'11111222,11111222,11144222' 
ADCP,ioos:station:wmo:42390:1,2012-10-07T02:30:00Z,26.1290,-94.8980,1.0,5.6,61.0,99.0,'11111222,11111222,11144222' 
ADCP,ioos:station:wmo:42390:1,2012-10-07T03:30:00Z,26.1290,-94.8980,1.0,6.2,65.0,99.0,'11111222,11111222,11144222' 
ADCP,ioos:station:wmo:42390:1,2012-10-07T04:30:00Z,26.1290,-94.8980,1.0,6.9,71.0,99.0,'11111222,11111222,11144222' 
ADCP,ioos:station:wmo:42390:1,2012-10-07T05:30:00Z,26.1290,-94.8980,1.0,6.1,69.0,99.0,'11111222,11111222,11144222' 
ADCP,ioos:station:wmo:42390:1,2012-10-07T06:30:00Z,26.1290,-94.8980,1.0,6.2,70.0,99.0,'11111222,11111222,11144222' 
ADCP,ioos:station:wmo:42390:1,2012-10-07T07:30:00Z,26.1290,-94.8980,1.0,5.7,69.0,99.0,'11111222,11111222,11144222' 
ADCP,ioos:station:wmo:42390:1,2012-10-07T08:30:00Z,26.1290,-94.8980,1.0,4.7,65.0,99.0,'11111222,11111222,11144222' 
ADCP,ioos:station:wmo:42390:1,2012-10-07T09:30:00Z,26.1290,-94.8980,1.0,4.1,44.0,99.0,'11111222,11111222,11144222' 
ADCP,ioos:station:wmo:42390:1,2012-10-07T10:30:00Z,26.1290,-94.8980,1.0,5.3,37.0,99.0,'11111222,11111222,11144222' 
ADCP,ioos:station:wmo:42390:1,2012-10-07T11:30:00Z,26.1290,-94.8980,1.0,7.1,30.0,99.0,'11111222,11111222,11144222' 
ADCP,ioos:station:wmo:42390:1,2012-10-07T12:30:00Z,26.1290,-94.8980,1.0,8.5,30.0,99.0,'11111222,11111222,11144222' 
ADCP,ioos:station:wmo:42390:1,2012-10-07T13:30:00Z,26.1290,-94.8980,1.0,8.5,36.0,99.0,'11111222,11111222,11144222' 
ADCP,ioos:station:wmo:42390:1,2012-10-07T14:30:00Z,26.1290,-94.8980,1.0,8.2,39.0,99.0,'11111222,11111222,11144222' 
ADCP,ioos:station:wmo:42390:1,2012-10-07T15:30:00Z,26.1290,-94.8980,1.0,7.1,46.0,99.0,'11111222,11111222,11144222' 
ADCP,ioos:station:wmo:42390:1,2012-10-07T16:30:00Z,26.1290,-94.8980,1.0,6.4,48.0,99.0,'11111222,11111222,11144222' 
ADCP,ioos:station:wmo:42390:1,2012-10-07T17:30:00Z,26.1290,-94.8980,1.0,8.0,41.0,99.0,'11111222,11111222,11144222' 
ADCP,ioos:station:wmo:42390:1,2012-10-07T18:30:00Z,26.1290,-94.8980,1.0,10.3,40.0,99.0,'11111222,11111222,11144222' 
ADCP,ioos:station:wmo:42390:1,2012-10-07T19:30:00Z,26.1290,-94.8980,1.0,11.7,35.0,99.0,'11111222,11111222,11144222' 
ADCP,ioos:station:wmo:42390:1,2012-10-07T20:30:00Z,26.1290,-94.8980,1.0,12.2,35.0,99.0,'11111222,11111222,11144222' 
ADCP,ioos:station:wmo:42390:1,2012-10-07T21:30:00Z,26.1290,-94.8980,1.0,11.6,35.0,99.0,'11111222,11111222,11144222' 
ADCP,ioos:station:wmo:42390:1,2012-10-07T22:30:00Z,26.1290,-94.8980,1.0,11.0,34.0,99.0,'11111222,11111222,11144222' 
ADCP,ioos:station:wmo:42390:1,2012-10-07T23:30:00Z,26.1290,-94.8980,1.0,10.1,37.0,99.0,'11111222,11111222,11144222' 
ADCP,ioos:station:wmo:42390:1,2012-10-08T00:30:00Z,26.1290,-94.8980,1.0,9.8,34.0,99.0,'11111222,11111222,11144222' 
ADCP,ioos:station:wmo:42390:1,2012-10-08T01:30:00Z,26.1290,-94.8980,1.0,9.7,33.0,99.0,'11111222,11111222,11144222' 
ADCP,ioos:station:wmo:42390:1,2012-10-08T02:30:00Z,26.1290,-94.8980,1.0,10.3,31.0,99.0,'11111222,11111222,11144222' 
ADCP,ioos:station:wmo:42390:1,2012-10-08T03:30:00Z,26.1290,-94.8980,1.0,10.4,31.0,99.0,'11111222,11111222,11144222' 
ADCP,ioos:station:wmo:42390:1,2012-10-08T04:30:00Z,26.1290,-94.8980,1.0,10.8,28.0,99.0,'11111222,11111222,11144222' 
ADCP,ioos:station:wmo:42390:1,2012-10-08T05:30:00Z,26.1290,-94.8980,1.0,10.7,29.0,99.0,'11111222,11111222,11144222' 
ADCP,ioos:station:wmo:42390:1,2012-10-08T06:30:00Z,26.1290,-94.8980,1.0,10.0,25.0,99.0,'11111222,11111222,11144222' 
ADCP,ioos:station:wmo:42390:1,2012-10-08T07:30:00Z,26.1290,-94.8980,1.0,9.1,30.0,99.0,'11111222,11111222,11144222' 
ADCP,ioos:station:wmo:42390:1,2012-10-08T08:30:00Z,26.1290,-94.8980,1.0,8.9,31.0,99.0,'11111222,11111222,11144222' 
ADCP,ioos:station:wmo:42390:1,2012-10-08T09:30:00Z,26.1290,-94.8980,1.0,9.6,24.0,99.0,'11111222,11111222,11144222' 
ADCP,ioos:station:wmo:42390:1,2012-10-08T10:30:00Z,26.1290,-94.8980,1.0,9.4,24.0,99.0,'11111222,11111222,11144222' 
ADCP,ioos:station:wmo:42390:1,2012-10-08T11:30:00Z,26.1290,-94.8980,1.0,9.6,28.0,99.0,'11111222,11111222,11144222' 
ADCP,ioos:station:wmo:42390:1,2012-10-08T12:30:00Z,26.1290,-94.8980,1.0,10.2,22.0,99.0,'11111222,11111222,11144222' 
ADCP,ioos:station:wmo:42390:1,2012-10-08T13:30:00Z,26.1290,-94.8980,1.0,10.1,23.0,99.0,'11111222,11111222,11144222' 
ADCP,ioos:station:wmo:42390:1,2012-10-08T14:30:00Z,26.1290,-94.8980,1.0,9.0,27.0,99.0,'11111222,11111222,11144222' 
ADCP,ioos:station:wmo:42390:1,2012-10-08T15:30:00Z,26.1290,-94.8980,1.0,9.5,27.0,99.0,'11111222,11111222,11144222' 
ADCP,ioos:station:wmo:42390:1,2012-10-08T16:30:00Z,26.1290,-94.8980,1.0,10.4,22.0,99.0,'11111222,11111222,11144222' 
ADCP,ioos:station:wmo:42390:1,2012-10-08T17:30:00Z,26.1290,-94.8980,1.0,9.7,25.0,99.0,'11111222,11111222,11144222' 
ADCP,ioos:station:wmo:42390:1,2012-10-08T18:30:00Z,26.1290,-94.8980,1.0,9.9,27.0,99.0,'11111222,11111222,11144222' 
ADCP,ioos:station:wmo:42390:1,2012-10-08T19:30:00Z,26.1290,-94.8980,1.0,11.2,23.0,99.0,'11111222,11111222,11144222' 
ADCP,ioos:station:wmo:42390:1,2012-10-08T20:30:00Z,26.1290,-94.8980,1.0,11.2,22.0,99.0,'11111222,11111222,11144222' 
ADCP,ioos:station:wmo:42390:1,2012-10-08T21:30:00Z,26.1290,-94.8980,1.0,11.4,26.0,99.0,'11111222,11111222,11144222' 
ADCP,ioos:station:wmo:42390:1,2012-10-08T22:30:00Z,26.1290,-94.8980,1.0,10.4,29.0,99.0,'11111222,11111222,11144222' 
ADCP,ioos:station:wmo:42390:1,2012-10-08T23:30:00Z,26.1290,-94.8980,1.0,10.9,31.0,99.0,'11111222,11111222,11144222' 
ADCP,ioos:station:wmo:42390:1,2012-10-09T00:30:00Z,26.1290,-94.8980,1.0,10.0,34.0,99.0,'11111222,11111222,11144222' 
ADCP,ioos:station:wmo:42390:1,2012-10-09T01:30:00Z,26.1290,-94.8980,1.0,9.9,34.0,99.0,'11111222,11111222,11144222' 
ADCP,ioos:station:wmo:42390:1,2012-10-09T02:30:00Z,26.1290,-94.8980,1.0,8.4,39.0,99.0,'11111222,11111222,11144222' 
ADCP,ioos:station:wmo:42390:1,2012-10-09T03:30:00Z,26.1290,-94.8980,1.0,7.5,44.0,99.0,'11111222,11111222,11144222' 
ADCP,ioos:station:wmo:42390:1,2012-10-09T04:30:00Z,26.1290,-94.8980,1.0,7.3,45.0,99.0,'11111222,11111222,11144222' 
ADCP,ioos:station:wmo:42390:1,2012-10-09T05:30:00Z,26.1290,-94.8980,1.0,6.1,51.0,99.0,'11111222,11111222,11144222' 
ADCP,ioos:station:wmo:42390:1,2012-10-09T06:30:00Z,26.1290,-94.8980,1.0,6.4,62.0,99.0,'11111222,11111222,11144222' 
ADCP,ioos:station:wmo:42390:1,2012-10-09T07:30:00Z,26.1290,-94.8980,1.0,7.2,68.0,99.0,'11111222,11111222,11144222' 
ADCP,ioos:station:wmo:42390:1,2012-10-09T09:30:00Z,26.1290,-94.8980,1.0,5.9,63.0,99.0,'11111222,11111222,11144222' 
ADCP,ioos:station:wmo:42390:1,2012-10-09T10:30:00Z,26.1290,-94.8980,1.0,6.5,68.0,99.0,'11111222,11111222,11144222' 
ADCP,ioos:station:wmo:42390:1,2012-10-09T11:30:00Z,26.1290,-94.8980,1.0,6.5,67.0,99.0,'11111222,11111222,11144222' 
ADCP,ioos:station:wmo:42390:1,2012-10-09T12:30:00Z,26.1290,-94.8980,1.0,6.2,67.0,99.0,'11111222,11111222,11144222' 